Regional Weather Roundup
Issued by NWS Upton, NY

Current Version | Previous Version | Graphics & Text | Print | Product List | Glossary Off
Versions: 1 2 3 4 5 6 7 8 9 10 11 12 13 14 15 16 17 18 19 20 21 22 23 24 25 26 27 28 29 30 31 32 33 34 35 36 37 38 39 40 41 42 43 44 45 46 47 48 49 50

000
ASUS41 KOKX 251308
RWROKX

REGIONAL WEATHER ROUNDUP
NATIONAL WEATHER SERVICE NEW YORK NY
900 AM EDT TUE APR 25 2017

NOTE: "FAIR" INDICATES FEW OR NO CLOUDS BELOW 12,000 FEET WITH NO
SIGNIFICANT WEATHER AND/OR OBSTRUCTIONS TO VISIBILITY.

NYZ071-072-176-178-NJZ106-104-251400-
NEW YORK CITY METRO AREA

CITY           SKY/WX    TMP DP  RH WIND       PRES   REMARKS
Central Park   CLOUDY    51  49  92 NE16G30   30.11F FOG
Wall St Helipt CLOUDY    52  49  89 NE22G29   30.07F
Bronx Bot Gard   N/A     50  48  93 E22       30.12R
LaGuardia APRT CLOUDY    53  49  86 NE21G30   30.09F
Kennedy INTL   DRIZZLE   53  51  93 NE16      30.09S FOG
Breezy Point     N/A     50 N/A N/A NE17G25     N/A
Newark/Liberty CLOUDY    52  49  89 NE14      30.08F
Teterboro      LGT RAIN  53  49  86 E13G22    30.09F FOG
$$

NYZ177-179-078>081-251400-
LONG ISLAND NEW YORK

CITY           SKY/WX    TMP DP  RH WIND       PRES   REMARKS
Jones Beach      N/A     52 N/A N/A NE23        N/A
Matinecock PT  NOT AVBL
Farmingdale    CLOUDY    52  50  93 NE14      30.09S
MacArthur/ISP  DRIZZLE   52  51  97 NE16G24   30.10S
Shirley        CLOUDY    52  50  93 VRB7      30.12R
Mt Sinai Harb    N/A    N/A N/A N/A E12         N/A
Westhampton    CLOUDY    52  49  89 NE13G23   30.13S
East Hampton   CLOUDY    48  47  96 E9G24     30.14S
Montauk          N/A     49  48  97 NE10G21   30.17S
$$

NYZ052-065-067-251400-
HUDSON VALLEY

CITY           SKY/WX    TMP DP  RH WIND       PRES   REMARKS
White Plains   CLOUDY    52  48  86 E15G24    30.10S
Larchmont Harb   N/A     50 N/A N/A NE25        N/A
Croton O-T Hud   N/A     52 N/A N/A CALM        N/A
Newburgh       CLOUDY    48  46  93 E9        30.16R FOG
Montgomery     CLOUDY    49  44  83 NE9       30.14S
Poughkeepsie   CLOUDY    48  46  93 N6        30.15S
Albany         LGT RAIN  47  34  60 N5        30.21S
$$

NJZ001-105-106-008-010-013-015-019>022-104-251400-
NEW JERSEY

CITY           SKY/WX    TMP DP  RH WIND       PRES   REMARKS
Newark/Liberty CLOUDY    52  49  89 NE14      30.08F
Teterboro      LGT RAIN  53  49  86 E13G22    30.09F FOG
Caldwell       CLOUDY    52  49  89 E15       30.10F FOG
Somerville     CLOUDY    52  50  93 E7        30.05F FOG
Linden         LGT RAIN  52  49  89 E9        30.09S
Sussex         CLOUDY    49  45  86 NE12      30.12F
Andover          N/A     49  46  90 VRB5      30.09S
Trenton        CLOUDY    53  51  93 E20G28    30.02F
Millville      LGT RAIN  54  54 100 NE15      29.95S FOG
Atlantic City  LGT RAIN  53  51  93 NE17G28   29.97R VSB 1/2
Wrightstown    CLOUDY    52  51  96 NE14G28   30.00S FOG
Toms River     LGT RAIN  51  50  96 NE17      30.04R VSB 1
Belmar         LGT RAIN  49  49 100 NE15G22   30.06S VSB 3/4
$$

PAZ047>061-062-071-251400-
EASTERN PENNSYLVANIA

CITY           SKY/WX    TMP DP  RH WIND       PRES   REMARKS
Philadelphia   CLOUDY    54  52  93 NE15G23   29.99S FOG
Allentown      CLOUDY    53  45  74 E17       30.05S
Scranton       CLOUDY    51  44  77 NE15G25   30.07R
$$

CTZ002-004>006-009-010-012-RIZ004-006-007-MAZ004-011-015-251400-
SOUTHERN NEW ENGLAND
 IN CT

CITY           SKY/WX    TMP DP  RH WIND       PRES   REMARKS
Bradley INTL   LGT RAIN  50  47  89 N12       30.22S FOG
Hartford       CLOUDY    51  49  92 N10       30.20S
Danbury        CLOUDY    49  49 100 E14G21    30.15F FOG
Wtrbury/Oxford CLOUDY    48  45  87 E9G20     30.17R
Bridgeport     CLOUDY    55  48  77 NE16      30.13F
Meriden        CLOUDY    53  48  83 N7        30.18S
New Haven      CLOUDY    53  48  83 NE10G21   30.15S
Chester        CLOUDY    52  50  93 E9G20     30.16S
Groton         LGT RAIN  54  51  90 NE17      30.16F FOG
Wilimantic     CLOUDY    54  50  86 NE10      30.20S

 IN RI

CITY           SKY/WX    TMP DP  RH WIND       PRES   REMARKS
Providence     LGT RAIN  51  50  96 NE13      30.23S
Block Island   LGT RAIN  48  47  96 NE15G21   30.18R
Westerly       LGT RAIN  53  52  96 NE13      30.18R
 IN MA

CITY           SKY/WX    TMP DP  RH WIND       PRES   REMARKS
Boston         LGT RAIN  48  46  93 NE15      30.28F
Worcester      LGT RAIN  46  44  93 NE15G24   30.24R
Westfield      LGT RAIN  50  48  93 N6        30.23R
Provincetown   CLOUDY    46  44  93 NE14      30.28R
Nantucket      CLOUDY    49  46  90 NE14      30.19R
$$

ANZ330-335-338-340-345-350-353-355-251400-
COASTAL MARINE OBSERVATIONS


STATION/POSITION TIME  SKY/WX   TEMP    WIND        PRES    VSBY  WAVE
                                AIR SEA DIR/SP/G                  HT/PER
                 (UTC)          (F)     (DEG/KT/KT) (MB)    (MI)  (FT/S)
NY HARB ENTRANCE 1150            49 49   60/ 23/ 29 1016.8          6/ 5
20 S FIRE ISLAND 1150            49 47   60/ 23/ 29 1016.2          7/ 5
GREAT SOUTH BAY  1230            54 55   60/ 19/ 23   N/A
23 SSW MONTAUK P 1150            48 46              1019.1          6/ 7
15 E BARNEGAT LI 1230               50                N/A           7/ 7
HUDSON CANYON    1150            50 47   90/ 16/ 17 1016.1          7/ 7
KINGS POINT      1242            51 47   90/ 10/ 20 1018.9
EXECUTION ROCKS  NOT AVBL
CENTRAL LI SOUND NOT AVBL
EASTERN LI SOUND NOT AVBL
ROBBINS REEF     1242            51      40/ 14/ 18 1018.6
$$


>>>>>>>>>>>>>>>>>>>>>>>>>>>> KEY <<<<<<<<<<<<<<<<<<<<<<<<<<<
>                                                          <
>     SKY/WX - Sky Condition/Present Weather               <
>     TMP    - Temperature in Fahrenheit                   <
>     DP     - Dew Point in Fahrenheit                     <
>     RH     - Relative Humidity in Percent                <
>     WIND   - Direction (from) and Speed in MPH           <
>     PRES   - Mean Sea Level Pressure (inches of Hg)      <
>     WCI    - Wind Chill Index                            <
>     VSB    - VISIBILITY IN MILES                         <
>     HX     - HEAT INDEX                                  <
>     TC     - TEMPERATURE IN CELSIUS                      <
>     VRB    - VARIABLE WIND DIRECTION                     <
>                                                          <
>>>>>>>>>>>>>>>>>>>>>>>>>>>> KEY <<<<<<<<<<<<<<<<<<<<<<<<<<<



USA.gov is the U.S. government's official web portal to all federal, state and local government web resources and services.